Regional Weather Roundup
Issued by NWS Green Bay, WI

Home | Current Version | Previous Version | Text Only | Print | Product List | Glossary On
Versions: 1 2 3 4 5 6 7 8 9 10 11 12 13 14 15 16 17 18 19 20 21 22 23 24 25 26 27 28 29 30 31 32 33 34 35 36 37 38 39 40 41 42 43 44 45 46 47 48 49 50
000
ASUS43 KGRB 221611
RWRGRB

NORTH-CENTRAL AND NORTHEAST WISCONSIN REGIONAL WEATHER ROUNDUP
NATIONAL WEATHER SERVICE GREEN BAY WI
1100 AM CDT FRI MAY 22 2015

WIZ005-009-010>012-018-019-221700-
NORTH CENTRAL WISCONSIN

CITY           SKY/WX    TMP DP  RH WIND       PRES   REMARKS
IRONWOOD       SUNNY     57  25  28 NW5       30.20S
MANITOWISH WTR SUNNY     58  26  30 NW9       30.20F
ARBOR VITAE    SUNNY     60  28  30 N9        30.21F
EAGLE RIVER    SUNNY     60  20  21 NW12G17   30.20S
LAND O LAKES   SUNNY     59  19  20 N5        30.21F
RHINELANDER    SUNNY     60  26  27 NW10G18   30.21F
PHILLIPS       SUNNY     60  30  32 N3        30.21S
ANTIGO         SUNNY     58  32  37 W8        30.21F
TOMAHAWK       SUNNY     59  27  29 W7        30.21F
MERRILL        SUNNY     60  32  35 N6        30.22S
$$

WIZ013-073-221700-
NORTHEAST WISCONSIN

CITY           SKY/WX    TMP DP  RH WIND       PRES   REMARKS
IRON MOUNTAIN  SUNNY     57  21  24 VRB6G16   30.20F
MARINETTE      SUNNY     50  32  50 SE9       30.23F
OCONTO         SUNNY     56  33  40 SE9       30.22F
$$

WIZ017-030-035>037-045-221700-
CENTRAL WISCONSIN

CITY           SKY/WX    TMP DP  RH WIND       PRES   REMARKS
MEDFORD        SUNNY     58  33  37 W5        30.21F
WAUSAU         SUNNY     61  30  31 VRB3      30.20F
MOSINEE        SUNNY     61  32  33 VRB5      30.23S
MARSHFIELD     SUNNY     62  35  36 SE3       30.21F
WISC RAPIDS    SUNNY     63  27  25 N5        30.23S
STEVENS POINT  SUNNY     59  31  34 W6        30.22F
WAUPACA        SUNNY     63  29  28 CALM      30.22F
SHAWANO        SUNNY     59  30  33 CALM      30.22F
CLINTONVILLE   SUNNY     61  30  31 CALM      30.22F
$$

WIZ038-039-048-051-221700-
FOX VALLEY

CITY           SKY/WX    TMP DP  RH WIND       PRES   REMARKS
NWS GREEN BAY  SUNNY     60  30  32 CALM      30.23F
APPLETON       SUNNY     57  30  35 CALM      30.23F
OSHKOSH        SUNNY     58  32  37 NE8       30.23S
FOND DU LAC    SUNNY     61  30  31 NE3       30.23S
$$

WIZ022-050-052-221700-
EAST CENTRAL WISCONSIN

CITY           SKY/WX    TMP DP  RH WIND       PRES   REMARKS
STURGEON BAY   SUNNY     54  21  28 NW3       30.26F
MANITOWOC      SUNNY     53  32  44 SE12      30.24S
SHEBOYGAN      SUNNY     58  33  39 E6        30.24S
$$

LMZ563-521-522-541>543-221700-
LAKESHORE

STATION/POSITION TIME  TEMP    WIND        PRES    VSBY  WAVE
                       AIR SEA DIR/SP/G                  HT/PER
                 (UTC) (F)     (DEG/KT/KT) (MB)    (MI)  (FT/S)
SHEBOYGAN LKSHOR 1600           70/  4/  5 1025.0S
KEWAUNEE LKSHORE 1500   47      80/  6/ 11 1023.3R
NORTHPORT PIER   1500   45      80/  7/  9 1024.4R
N MID LAKE BUOY  1550   38 36   60/  6/  8 1025.1R         1
SISTER BAY LKSHO 1502   51     340/  7/  8   N/A
STURGEON BAY CG  1515           60/  8     1022.9      6   2
CHAMBERS ISLAND  1500   46      20/  6/  7 1024.4R
MENOMINEE LKSHOR 1500   46      60/  6/  8 1024.6R
$$



USA.gov is the U.S. government's official web portal to all federal, state and local government web resources and services.